When you browse on this site, cookies collect data to enhance your experience and personalize the content and advertising you see.
Visit our Privacy Policy to learn more. By continuing to use the site, you agree to this use of cookies and data.
  • In Hungary
  • List of Countries
  • For 7 days
  • Water Temperature
  • Satellite Maps
  • Weather Map
  • News
  • Weather Widgets
  • user-avatar
    Login

    Hourly Weather Morristown

    Today, 18 July, Thursday

    Time Temperature Precipitation Wind Pressure Humidity
    00:00 +23°C° 0 mm 2 mps 727 mmHg 96%
    01:00 +23°C° 0 mm 2 mps 727 mmHg 96%
    02:00 +22°C° 0 mm 1 mps 726 mmHg 97%
    03:00 +22°C° 0 mm 1 mps 726 mmHg 97%
    04:00 +23°C° 0 mm 2 mps 727 mmHg 97%
    05:00 +23°C° 0 mm 2 mps 727 mmHg 97%
    06:00 +24°C° 0 mm 2 mps 727 mmHg 96%
    07:00 +25°C° 0 mm 2 mps 727 mmHg 93%
    08:00 +26°C° 0 mm 2 mps 727 mmHg 91%
    09:00 +27°C° 0 mm 2 mps 727 mmHg 88%
    10:00 +28°C° 0.4 mm 2 mps 727 mmHg 82%
    11:00 +29°C° 0.4 mm 2 mps 727 mmHg 76%
    12:00 +31°C° 0.4 mm 2 mps 727 mmHg 69%
    13:00 +31°C° 1 mm 2 mps 727 mmHg 70%
    14:00 +31°C° 1 mm 3 mps 726 mmHg 70%
    15:00 +31°C° 1 mm 3 mps 726 mmHg 70%
    16:00 +30°C° 0.5 mm 2 mps 726 mmHg 75%
    17:00 +29°C° 0.5 mm 2 mps 726 mmHg 80%
    18:00 +28°C° 0.5 mm 2 mps 726 mmHg 84%
    19:00 +27°C° 0.1 mm 1 mps 726 mmHg 86%
    20:00 +26°C° 0.1 mm 1 mps 726 mmHg 88%
    21:00 +25°C° 0.1 mm 1 mps 727 mmHg 90%
    22:00 +24°C° 0.1 mm 1 mps 727 mmHg 91%
    23:00 +24°C° 0.1 mm 1 mps 727 mmHg 92%

    Tomorrow, 19 July, Friday

    Time Temperature Precipitation Wind Pressure Humidity
    00:00 +24°C° 0.1 mm 1 mps 727 mmHg 93%
    01:00 +23°C° 0 mm 1 mps 727 mmHg 94%
    02:00 +23°C° 0 mm 1 mps 727 mmHg 94%
    03:00 +23°C° 0 mm 1 mps 727 mmHg 95%
    04:00 +23°C° 0 mm 1 mps 727 mmHg 94%
    05:00 +24°C° 0 mm 1 mps 727 mmHg 94%
    06:00 +23°C° 0 mm 0 mps 728 mmHg 93%
    07:00 +27°C° 0.1 mm 1 mps 728 mmHg 87%
    08:00 +29°C° 0.1 mm 1 mps 728 mmHg 81%
    09:00 +31°C° 0.1 mm 1 mps 728 mmHg 75%
    10:00 +31°C° 0.5 mm 1 mps 728 mmHg 72%
    11:00 +30°C° 0.5 mm 0 mps 728 mmHg 68%
    12:00 +31°C° 0.5 mm 0 mps 728 mmHg 65%
    13:00 +34°C° 0.2 mm 1 mps 728 mmHg 62%
    14:00 +34°C° 0.2 mm 1 mps 728 mmHg 59%
    15:00 +34°C° 0.2 mm 1 mps 728 mmHg 56%
    16:00 +33°C° 0.1 mm 1 mps 727 mmHg 63%
    17:00 +31°C° 0.1 mm 1 mps 727 mmHg 69%
    18:00 +28°C° 0.1 mm 0 mps 727 mmHg 76%
    19:00 +27°C° 0.1 mm 0 mps 727 mmHg 78%
    20:00 +25°C° 0.1 mm 0 mps 727 mmHg 81%
    21:00 +24°C° 0.1 mm 0 mps 727 mmHg 84%
    22:00 +23°C° 0 mm 0 mps 727 mmHg 86%
    23:00 +23°C° 0 mm 0 mps 727 mmHg 87%

    Day after tomorrow, 20 July, Saturday

    Time Temperature Precipitation Wind Pressure Humidity
    00:00 +22°C° 0 mm 0 mps 727 mmHg 89%
    01:00 +22°C° 0 mm 0 mps 727 mmHg 89%
    02:00 +22°C° 0 mm 0 mps 727 mmHg 90%
    03:00 +21°C° 0 mm 0 mps 727 mmHg 91%
    04:00 +22°C° 0.5 mm 0 mps 727 mmHg 91%
    05:00 +22°C° 0.5 mm 0 mps 727 mmHg 91%
    06:00 +23°C° 0.5 mm 0 mps 728 mmHg 90%
    07:00 +25°C° 0.3 mm 0 mps 728 mmHg 85%
    08:00 +27°C° 0.3 mm 0 mps 728 mmHg 79%
    09:00 +31°C° 0.3 mm 1 mps 728 mmHg 73%
    10:00 +32°C° 0.5 mm 1 mps 728 mmHg 65%
    11:00 +34°C° 0.5 mm 1 mps 728 mmHg 57%
    12:00 +35°C° 0.5 mm 1 mps 728 mmHg 49%
    13:00 +35°C° 0 mm 1 mps 727 mmHg 49%
    14:00 +35°C° 0 mm 1 mps 727 mmHg 50%
    15:00 +35°C° 0 mm 1 mps 727 mmHg 50%
    16:00 +33°C° 0.3 mm 1 mps 727 mmHg 59%
    17:00 +31°C° 0.3 mm 2 mps 726 mmHg 68%
    18:00 +29°C° 0.3 mm 2 mps 726 mmHg 77%
    19:00 +28°C° 2.7 mm 2 mps 726 mmHg 84%
    20:00 +26°C° 2.7 mm 2 mps 726 mmHg 90%
    21:00 +24°C° 2.7 mm 2 mps 727 mmHg 96%
    22:00 +24°C° 0.3 mm 1 mps 726 mmHg 97%
    23:00 +24°C° 0.3 mm 1 mps 726 mmHg 97%

    21 July, Sunday

    Time Temperature Precipitation Wind Pressure Humidity
    00:00 +21°C° 0.3 mm 0 mps 726 mmHg 97%
    01:00 +23°C° 0.7 mm 1 mps 726 mmHg 97%
    02:00 +23°C° 0.7 mm 1 mps 726 mmHg 97%
    03:00 +23°C° 0.7 mm 1 mps 726 mmHg 97%
    04:00 +23°C° 0.9 mm 1 mps 726 mmHg 97%
    05:00 +24°C° 0.9 mm 1 mps 726 mmHg 96%
    06:00 +24°C° 0.9 mm 1 mps 727 mmHg 95%
    07:00 +25°C° 0.4 mm 1 mps 727 mmHg 93%
    08:00 +26°C° 0.4 mm 2 mps 727 mmHg 90%
    09:00 +27°C° 0.4 mm 2 mps 727 mmHg 87%
    10:00 +28°C° 1.8 mm 3 mps 727 mmHg 86%
    11:00 +28°C° 1.8 mm 3 mps 727 mmHg 84%
    12:00 +29°C° 1.8 mm 3 mps 727 mmHg 82%
    13:00 +29°C° 0.5 mm 3 mps 727 mmHg 83%
    14:00 +28°C° 0.5 mm 2 mps 726 mmHg 85%
    15:00 +28°C° 0.5 mm 2 mps 726 mmHg 86%
    16:00 +27°C° 0 mm 2 mps 726 mmHg 88%
    17:00 +27°C° 0 mm 1 mps 726 mmHg 89%
    18:00 +26°C° 0 mm 1 mps 726 mmHg 90%
    19:00 +25°C° 0 mm 1 mps 726 mmHg 92%
    20:00 +24°C° 0 mm 1 mps 726 mmHg 93%
    21:00 +24°C° 0 mm 1 mps 726 mmHg 94%
    22:00 +24°C° 0.1 mm 1 mps 726 mmHg 95%
    23:00 +23°C° 0.1 mm 1 mps 726 mmHg 95%

    22 July, Monday

    Time Temperature Precipitation Wind Pressure Humidity
    00:00 +23°C° 0.1 mm 1 mps 726 mmHg 96%
    01:00 +23°C° 0.2 mm 1 mps 726 mmHg 96%
    02:00 +23°C° 0.2 mm 1 mps 726 mmHg 96%
    03:00 +22°C° 0.2 mm 1 mps 725 mmHg 96%
    04:00 +23°C° 0 mm 1 mps 726 mmHg 96%
    05:00 +23°C° 0 mm 2 mps 726 mmHg 95%
    06:00 +24°C° 0 mm 2 mps 726 mmHg 95%
    07:00 +25°C° 0.2 mm 2 mps 726 mmHg 90%
    08:00 +27°C° 0.2 mm 2 mps 726 mmHg 85%
    09:00 +28°C° 0.2 mm 3 mps 727 mmHg 80%
    10:00 +29°C° 1.2 mm 3 mps 726 mmHg 77%
    11:00 +30°C° 1.2 mm 4 mps 726 mmHg 74%
    12:00 +32°C° 1.2 mm 4 mps 726 mmHg 71%
    13:00 +30°C° 1.7 mm 4 mps 726 mmHg 75%
    14:00 +29°C° 1.7 mm 4 mps 726 mmHg 79%
    15:00 +28°C° 1.7 mm 5 mps 726 mmHg 83%
    16:00 +27°C° 1.3 mm 4 mps 725 mmHg 85%
    17:00 +26°C° 1.3 mm 3 mps 725 mmHg 88%
    18:00 +25°C° 1.3 mm 3 mps 725 mmHg 90%
    19:00 +25°C° 0.7 mm 3 mps 725 mmHg 92%
    20:00 +24°C° 0.7 mm 3 mps 726 mmHg 93%
    21:00 +22°C° 0.7 mm 3 mps 726 mmHg 95%
    22:00 +22°C° 0.7 mm 3 mps 726 mmHg 95%
    23:00 +23°C° 0.7 mm 2 mps 725 mmHg 96%

    23 July, Tuesday

    Time Temperature Precipitation Wind Pressure Humidity
    00:00 +23°C° 0.7 mm 2 mps 725 mmHg 96%
    01:00 +23°C° 1.4 mm 2 mps 725 mmHg 97%
    02:00 +22°C° 1.4 mm 1 mps 725 mmHg 97%
    03:00 +22°C° 1.4 mm 1 mps 725 mmHg 98%
    04:00 +22°C° 0.8 mm 1 mps 725 mmHg 97%
    05:00 +22°C° 0.8 mm 1 mps 726 mmHg 96%
    06:00 +21°C° 0.8 mm 0 mps 726 mmHg 96%
    07:00 +23°C° 0.2 mm 1 mps 726 mmHg 92%
    08:00 +24°C° 0.2 mm 2 mps 726 mmHg 88%
    09:00 +24°C° 0.2 mm 2 mps 727 mmHg 85%
    10:00 +25°C° 0.3 mm 2 mps 727 mmHg 82%
    11:00 +25°C° 0.3 mm 2 mps 726 mmHg 79%
    12:00 +25°C° 0.3 mm 2 mps 726 mmHg 76%
    13:00 +26°C° 0.1 mm 1 mps 726 mmHg 73%
    14:00 +27°C° 0.1 mm 1 mps 726 mmHg 69%
    15:00 +27°C° 0.1 mm 1 mps 726 mmHg 65%
    16:00 +26°C° 0.1 mm 2 mps 726 mmHg 68%
    17:00 +25°C° 0.1 mm 2 mps 726 mmHg 71%
    18:00 +22°C° 0.1 mm 3 mps 726 mmHg 74%
    19:00 +21°C° 0 mm 2 mps 726 mmHg 74%
    20:00 +20°C° 0 mm 2 mps 727 mmHg 75%
    21:00 +18°C° 0 mm 2 mps 727 mmHg 75%
    22:00 +17°C° 0 mm 2 mps 727 mmHg 77%
    23:00 +17°C° 0 mm 2 mps 727 mmHg 80%
    Show more